Location: Ostrava
(49.8330°N, 18.2830°E)
Time: 19:34:44
(UTC+02:00)

Iridium 39 - Visible Passes

Search period start: 31 July 2014 00:00
Search period end: 10 August 2014 00:00
Orbit: 776 x 779 km, 86.4° (Epoch: 31 July)

Date Brightness Start Highest point End Pass type
(mag) Time Alt. Az. Time Alt. Az. Time Alt. Az.
31 Jul 8.0 00:00:00 16° NW 00:02:14 21° WNW 00:05:52 11° SW visible
31 Jul 6.8 21:43:28 10° N 21:48:16 35° ENE 21:52:03 15° SE visible
31 Jul 7.3 23:24:16 10° NNW 23:28:58 35° W 23:32:31 16° SW visible
01 Aug 7.5 21:10:25 10° NNE 21:14:26 22° ENE 21:18:25 10° ESE visible
01 Aug 6.4 22:50:27 10° N 22:55:35 60° W 22:59:11 20° SSW visible
02 Aug 6.0 22:16:50 10° N 22:22:05 82° E 22:25:51 19° S visible
02 Aug 8.4 23:59:04 10° NW 00:02:06 16° WNW 00:05:07 10° WSW visible
03 Aug 6.4 21:43:24 10° N 21:48:28 48° E 21:52:32 15° SSE visible
03 Aug 7.8 23:24:39 10° NNW 23:28:54 26° W 23:33:01 11° SW visible
04 Aug 7.1 21:10:10 10° NNE 21:14:42 29° ENE 21:19:13 10° SE visible
04 Aug 7.0 22:50:41 10° NNW 22:55:36 43° W 22:59:42 14° SSW visible
05 Aug 6.2 22:16:57 10° N 22:22:10 74° W 22:26:25 16° S visible
06 Aug 8.6 00:00:21 10° NW 00:01:55 11° WNW 00:03:29 10° W visible
06 Aug 6.1 21:43:24 10° N 21:48:37 67° E 21:53:08 14° SSE visible
06 Aug 8.3 23:25:11 10° NNW 23:28:48 19° WNW 23:32:24 10° WSW visible
07 Aug 6.6 21:10:02 10° N 21:14:56 39° ENE 21:19:48 10° SSE visible
07 Aug 7.6 22:50:59 10° NNW 22:55:33 32° W 23:00:06 10° SW visible
08 Aug 6.7 22:17:07 10° NNW 22:22:11 53° W 22:27:06 11° SSW visible
09 Aug 6.0 21:43:27 10° N 21:48:43 90° W 21:53:52 10° S visible
09 Aug 8.6 23:25:59 10° NW 23:28:38 14° WNW 23:31:16 10° WSW visible
